Location: Carnières
(50.1682°N, 3.3474°E)
Time: 00:54:50
(UTC+00:00)

FENGYUN 1C DEB - Visible Passes

Search period start: 12 October 2024 00:00
Search period end: 22 October 2024 00:00
Orbit: 752 x 864 km, 98.3° (Epoch: 08 October)

Date Brightness Start Highest point End Pass type
(mag) Time Alt. Az. Time Alt. Az. Time Alt. Az.
12 Oct ? 04:36:21 10° ENE 04:38:42 13° E 04:41:03 10° ESE visible
12 Oct ? 17:39:38 10° S 17:44:38 50° W 17:49:49 10° NNW visible
13 Oct ? 18:58:56 10° WSW 19:01:06 12° W 19:03:18 10° WNW visible
14 Oct ? 05:25:47 10° NNE 05:30:43 32° E 05:35:40 10° SSE visible
14 Oct ? 18:32:40 10° SW 18:36:25 20° W 18:40:17 10° NW visible
15 Oct ? 05:02:01 10° NE 05:06:10 21° E 05:10:19 10° SE visible
15 Oct ? 18:07:16 10° SSW 18:11:49 31° W 18:16:32 10° NNW visible
16 Oct ? 04:38:48 10° NE 04:41:30 14° E 04:44:11 10° ESE visible
16 Oct ? 17:42:18 10° S 17:47:18 48° W 17:52:30 10° NNW visible
17 Oct ? 17:17:39 10° S 17:22:52 74° WSW 17:28:17 10° NNW visible
17 Oct ? 19:01:48 10° WSW 19:03:44 12° W 19:05:42 10° WNW visible
18 Oct ? 05:28:19 10° NNE 05:33:21 34° E 05:38:22 10° SSE visible
18 Oct ? 18:35:17 10° SW 18:38:58 19° W 18:42:46 10° NW visible
19 Oct ? 05:04:26 10° NE 05:08:44 22° E 05:13:01 10° SE visible
19 Oct ? 18:09:45 10° SSW 18:14:18 29° W 18:19:00 10° NNW visible
20 Oct ? 04:41:02 10° NE 04:44:00 14° E 04:46:57 10° ESE visible
20 Oct ? 17:44:40 10° S 17:49:42 45° W 17:54:55 10° NNW visible
21 Oct ? 17:19:56 10° S 17:25:11 71° WSW 17:30:39 10° NNW visible
21 Oct ? 19:04:23 10° WSW 19:06:06 11° W 19:07:50 10° WNW visible
